星链-5468 (STARLINK-5468 )

导读 | 豆包AI

STARLINK-5468是美国太空探索技术公司(SpaceX)星链(Starlink)项目的卫星,于2022年12月17日发射入轨,属于星链互联网卫星星座的组成部分。星链旨在通过低轨卫星星座为全球提供高速互联网接入服务,该卫星进一步扩充了星座规模,提升了系统全球覆盖与服务能力。

基本信息
目录编号:
54777
目录名称:
STARLINK-5468
国际标识:
2022-175V
轨道中心:
EARTH
卫星名称:
星链-5468
卫星全名:
星链-5468 (STARLINK-5468 )
卫星状态:
在轨 (已飞行1184 天)
发射日期:
2022-12-17 UTC
国别 :
美国 (US)
星等 :
--
轨道信息
数据来源 国际轨道数据 AOE轨道数据
星历时间 2026-03-15T11:11:32+0800
10小时前
查看轨道信息
2026-03-09T22:00:00+0800
5天前
查看轨道信息
半长轴 6917.871km 6917.798km
偏心率 0.0001221 0.0001699
轨道倾角 53.218° 53.215°
近地点辐角 89.983° 84.278°
升交点赤经 19.482° 44.398°
平近点角 270.130° 354.657°
近地点 538.889km 538.485km
远地点 540.579km 540.837km
周期 95.437分钟 95.436分钟
每日圈数 15.088431 15.088671
详细信息
固有亮度:
5
最大亮度:
2.5
卫星平台:
Starlink v1.5
覆盖范围:
全球
运营商:
太空探索技术公司
运营商所在国:
美国
制造商(研发单位):
太空探索技术公司
制造商所在国:
美国
使用方式:
暂无
卫星简介
星链(Starlink)计划是由太空探索技术公司(SpaceX)提出的一个巨型低轨卫星互联网星座项目,计划在2019年至2024年间在太空搭建由约1.2万颗卫星组成的“星链”网络,其中1584颗将部署在地球上空550千米处的近地轨道,并从2020年开始工作。该卫星仍在工作。
2D轨道图
3D轨道图
轨道高度分析图
轨道倾角分析图
轨道综合分析图
查看轨道综合分析图